Tracking 17265 objects as of 5-September-2015
HD Live streaming from Space Station

Track Soyuz TMA-18M
and Space Station

COSMOS 2251 DEB

Track COSMOS 2251 DEB now!
10-day predictions
COSMOS 2251 DEB is classified as:


NORAD ID: 34131
Int'l Code: 1993-036LC
Perigee: 714.0 km
Apogee: 720.4 km
Inclination: 74.1 °
Period: 99.0 minutes
Semi major axis: 7088 km
RCS: 0.018 m2 (small)
Launch date: June 16, 1993
Source: Commonwealth of Independent States (former USSR) (CIS)

Note: This is SATELLITE DEBRIS
Your satellite tracking list
Your tracking list is empty





NASA's NSSDC Master Catalog

Two Line Element Set (TLE):
1 34131U 93036LC  15247.52790865  .00002564  00000-0  60446-3 0  9994
2 34131  74.1226 289.3408 0004521 131.8633 345.7283 14.54777056344848

Source of the keplerian elements: AFSPC

N2YO: 343